Flag for U.S.A. Weather past 2 weeks in Fresno, California, U.S.A.

Now
58 °F

Overcast.


Feels Like: 58 °F
Forecast: 57 / 79 °F
Wind: 5 mph from Northwest

Location: Fresno Air Terminal

Current Time: May 23, 2015 at 6:50:21 AM

Latest Report: May 23, 2015 at 5:53 AM


Visibility: 10 mi

Pressure: 30.03 "Hg

Humidity: 75%

Dew point: 50 °F

Location of FresnoLocation

Historic Weather in Fresno — Graph

°F

Fresno temperature yesterday

Maximum temperature yesterday: 71 °F (at 1:53 PM)
Minimum temperature yesterday: 58 °F (at 6:53 AM)
Average temperature yesterday: 64 °F

Past Weeks' High & Low Weather Summary

 TemperatureHumidityPressure
High85 °F (May 10, 4:53 PM)93% (May 15, 3:53 AM)30.07 "Hg (May 15, 3:53 AM)
Low51 °F (May 8, 4:53 AM)12% (May 12, 4:53 PM)29.73 "Hg (May 14, 4:53 PM)
Average64 °F51%29.92 "Hg
* Reported May 8 4:53 AM — May 23 4:53 AM, Fresno, Weather by CustomWeather, © 2015

Note: Actual official high and low records may vary slightly from our data, if they occured in-between our weather recording intervals... More about our weather records

Advertising

Fresno weather history for previous 24 hours

 ConditionsComfort  
Time TempWeatherWind HumidityBarometerVisibility
4:53 AM
Sat, May 23
58 °FPartly cloudy.5 mph75%30.03 "Hg10 mi
3:53 AM58 °FPartly cloudy.8 mph75%30.02 "Hg10 mi
2:53 AM60 °FMostly cloudy.5 mph69%30.02 "Hg10 mi
1:53 AM61 °FPartly cloudy.3 mph67%30.02 "Hg10 mi
12:53 AM62 °FPassing clouds.7 mph62%30.03 "Hg10 mi
11:53 PM
Fri, May 22
64 °FPassing clouds.9 mph63%30.03 "Hg10 mi
10:53 PM65 °FPassing clouds.No wind61%30.01 "Hg10 mi
9:53 PM66 °FPassing clouds.5 mph56%30.00 "Hg10 mi
8:53 PM67 °FOvercast.7 mph55%29.98 "Hg10 mi
7:53 PM68 °FOvercast.5 mph51%29.97 "Hg10 mi
6:53 PM69 °FPartly sunny.8 mph49%29.96 "Hg10 mi
5:53 PM70 °FMostly cloudy.5 mph42%29.96 "Hg10 mi
4:53 PM71 °FMostly cloudy.8 mph41%29.96 "Hg10 mi
3:53 PM71 °FMostly cloudy.8 mph39%29.96 "Hg10 mi
2:53 PM70 °FCloudy.3 mph41%29.97 "Hg10 mi
1:53 PM71 °FMostly cloudy.3 mph39%29.98 "Hg10 mi
12:53 PM69 °FPartly sunny.6 mph44%29.99 "Hg10 mi
11:53 AM66 °FMostly cloudy.6 mph50%30.00 "Hg10 mi
10:53 AM64 °FMostly cloudy.9 mph56%30.00 "Hg10 mi
9:53 AM61 °FMostly cloudy.8 mph60%30.00 "Hg10 mi
8:53 AM60 °FOvercast.13 mph65%29.99 "Hg10 mi
7:53 AM59 °FOvercast.10 mph67%29.98 "Hg10 mi
6:53 AM58 °FOvercast.12 mph67%29.96 "Hg10 mi
Weather by CustomWeather, © 2015

See weather overviewHow to use our weather pages